Ionia, MI

4:13 AM EST on November 21, 2019 (GMT -0500)
Ionia

Weather History for KY70 - September, 2019

Change the Weather History Date:

Wednesday, September 4, 2019

  Actual Average (WUND) Record (WUND)
Temperature  
Mean Temperature 64 °F -  
Max Temperature 70 °F - - (-1)
Min Temperature 55 °F - - (-1)
Degree Days  
Heating Degree Days 2    
Growing Degree Days 14 (Base 50)    
Moisture  
Dew Point 53 °F    
Average Humidity 67    
Maximum Humidity 88    
Minimum Humidity 49    
Precipitation  
Precipitation 0.00 in - - ()
Sea Level Pressure  
Sea Level Pressure 30.03 in    
Wind  
Wind Speed 7 mph ()    
Max Wind Speed 13 mph    
Max Gust Speed 21 mph    
Visibility 10.0 miles    
Events      
Averages and records for this station are not official NWS values.
T = Trace of Precipitation, MM = Missing Value Source: Averaged Metar Reports

Daily Weather History Graph

Daily Weather History Graph

Search for Another Location

Airport or City:

Astronomy

Sep. 04, 2019 Rise Set
Actual Time 7:07 AM EDT 8:10 PM EDT
Civil Twilight 6:38 AM EDT 8:38 PM EDT
Nautical Twilight 6:04 AM EDT 9:13 PM EDT
Astronomical Twilight 5:27 AM EDT 9:49 PM EDT
Moon 1:17 PM EDT (9/4) 11:34 PM EDT (9/4)
Length of Visible Light 14h 00m
Length of Day
13h 02m
Waxing Crescent, 34% of the Moon is Illuminated
Sep 4
Waxing Crescent
Sep 5
First Quarter
Sep 14
Full
Sep 21
Last Quarter
Sep 28
New

Hourly Weather History & Observations

Time (EDT) Temp. Dew Point Humidity Pressure Visibility Wind Dir Wind Speed Gust Speed Precip Events Conditions
12:16 AM 70.5 °F 63.0 °F 77% 29.80 in 10.0 mi WNW 8.1 mph - N/A   Scattered Clouds
12:35 AM 69.8 °F 63.0 °F 79% 29.80 in 10.0 mi West 8.1 mph - N/A   Clear
12:55 AM 69.3 °F 63.1 °F 81% 29.81 in 10.0 mi West 9.2 mph - N/A   Clear
1:19 AM 69.1 °F 61.5 °F 77% 29.82 in 10.0 mi West 11.5 mph - N/A   Clear
1:37 AM 69.1 °F 60.8 °F 75% 29.83 in 10.0 mi West 11.5 mph - N/A   Clear
1:55 AM 68.9 °F 60.1 °F 73% 29.84 in 10.0 mi West 6.9 mph - N/A   Scattered Clouds
1:56 AM 68.9 °F 59.9 °F 73% 29.84 in 10.0 mi West 6.9 mph - N/A   Scattered Clouds
2:15 AM 68.2 °F 59.0 °F 72% 29.84 in 10.0 mi West 9.2 mph - N/A   Mostly Cloudy
2:35 AM 67.5 °F 58.1 °F 72% 29.85 in 10.0 mi West 9.2 mph - N/A   Mostly Cloudy
2:58 AM 66.7 °F 58.1 °F 74% 29.86 in 10.0 mi West 9.2 mph - N/A   Clear
3:16 AM 66.4 °F 57.7 °F 74% 29.87 in 10.0 mi West 9.2 mph - N/A   Clear
3:35 AM 65.3 °F 57.2 °F 75% 29.87 in 10.0 mi West 9.2 mph - N/A   Scattered Clouds
3:36 AM 65.3 °F 57.2 °F 75% 29.87 in 10.0 mi West 9.2 mph - N/A   Scattered Clouds
3:55 AM 64.6 °F 57.2 °F 77% 29.87 in 10.0 mi WNW 8.1 mph - N/A   Clear
3:56 AM 64.4 °F 57.2 °F 77% 29.87 in 10.0 mi WNW 8.1 mph - N/A   Clear
4:19 AM 63.5 °F 57.0 °F 79% 29.88 in 10.0 mi WNW 5.8 mph - N/A   Clear
4:37 AM 63.0 °F 56.8 °F 80% 29.89 in 10.0 mi WNW 5.8 mph - N/A   Clear
4:55 AM 62.6 °F 56.5 °F 80% 29.90 in 10.0 mi West 4.6 mph - N/A   Clear
5:15 AM 62.1 °F 56.7 °F 82% 29.91 in 10.0 mi West 3.5 mph - N/A   Clear
5:16 AM 61.9 °F 56.3 °F 82% 29.91 in 10.0 mi West 3.5 mph - N/A   Clear
5:35 AM 61.2 °F 56.8 °F 86% 29.91 in 10.0 mi West 4.6 mph - N/A   Clear
5:39 AM 61.3 °F 56.8 °F 85% 29.92 in 10.0 mi West 4.6 mph - N/A   Clear
5:58 AM 61.3 °F 56.8 °F 85% 29.92 in 10.0 mi West 5.8 mph - N/A   Clear
6:16 AM 60.1 °F 56.1 °F 87% 29.93 in 10.0 mi West 6.9 mph - N/A   Clear
6:35 AM 60.8 °F 56.8 °F 87% 29.95 in 10.0 mi WNW 6.9 mph - N/A   Clear
6:36 AM 60.8 °F 56.8 °F 87% 29.95 in 10.0 mi WNW 6.9 mph - N/A   Clear
6:55 AM 60.3 °F 56.5 °F 87% 29.95 in 10.0 mi WNW 6.9 mph - N/A   Clear
7:19 AM 60.8 °F 56.5 °F 86% 29.97 in 10.0 mi WNW 6.9 mph - N/A   Scattered Clouds
7:37 AM 60.8 °F 56.5 °F 86% 29.98 in 10.0 mi NW 8.1 mph - N/A   Scattered Clouds
7:56 AM 60.8 °F 55.4 °F 82% 29.99 in 10.0 mi NW 6.9 mph - N/A   Clear
8:15 AM 61.2 °F 53.8 °F 77% 30.00 in 10.0 mi NW 6.9 mph - N/A   Clear
8:35 AM 61.7 °F 52.7 °F 72% 30.01 in 10.0 mi NNW 6.9 mph - N/A   Clear
8:58 AM 62.6 °F 51.3 °F 66% 30.02 in 10.0 mi NNW 6.9 mph 17.3 mph N/A   Clear
9:16 AM 63.0 °F 50.9 °F 65% 30.03 in 10.0 mi NW 11.5 mph 18.4 mph N/A   Scattered Clouds
9:35 AM 63.1 °F 51.3 °F 65% 30.03 in 10.0 mi NNW 11.5 mph 19.6 mph N/A   Mostly Cloudy
9:36 AM 63.1 °F 51.1 °F 65% 30.03 in 10.0 mi North 12.7 mph 19.6 mph N/A   Mostly Cloudy
9:55 AM 62.8 °F 51.1 °F 66% 30.04 in 10.0 mi NNW 9.2 mph - N/A   Overcast
10:19 AM 62.6 °F 49.6 °F 63% 30.05 in 10.0 mi North 6.9 mph - N/A   Overcast
10:37 AM 62.8 °F 49.3 °F 61% 30.06 in 10.0 mi NW 8.1 mph - N/A   Overcast
10:55 AM 63.3 °F 48.2 °F 58% 30.06 in 10.0 mi NNW 9.2 mph 20.7 mph N/A   Overcast
10:56 AM 63.5 °F 48.2 °F 57% 30.06 in 10.0 mi North - - N/A   Overcast
11:15 AM 64.9 °F 48.0 °F 54% 30.07 in 10.0 mi NNW 6.9 mph 16.1 mph N/A   Scattered Clouds
11:16 AM 64.8 °F 47.8 °F 54% 30.07 in 10.0 mi NNW 6.9 mph 16.1 mph N/A   Scattered Clouds
11:35 AM 65.5 °F 47.3 °F 52% 30.07 in 10.0 mi North 10.4 mph 17.3 mph N/A   Scattered Clouds
11:40 AM 65.5 °F 47.5 °F 52% 30.07 in 10.0 mi North 9.2 mph 17.3 mph N/A   Scattered Clouds
11:58 AM 66.2 °F 47.8 °F 52% 30.08 in 10.0 mi North - - N/A   Scattered Clouds
12:16 PM 66.2 °F 47.8 °F 52% 30.08 in 10.0 mi NNW 3.5 mph - N/A   Mostly Cloudy
12:35 PM 66.9 °F 49.3 °F 53% 30.08 in 10.0 mi West 11.5 mph 16.1 mph N/A   Overcast
12:36 PM 66.9 °F 49.1 °F 53% 30.08 in 10.0 mi West 12.7 mph 16.1 mph N/A   Overcast
12:55 PM 67.1 °F 49.6 °F 53% 30.08 in 10.0 mi WNW 8.1 mph - N/A   Overcast
12:56 PM 67.3 °F 49.6 °F 53% 30.08 in 10.0 mi NW 8.1 mph - N/A   Overcast
1:19 PM 68.2 °F 48.6 °F 49% 30.09 in 10.0 mi NW 6.9 mph - N/A   Overcast
1:37 PM 67.6 °F 48.9 °F 51% 30.09 in 10.0 mi WNW 8.1 mph - N/A   Overcast
1:55 PM 68.0 °F 48.9 °F 50% 30.09 in 10.0 mi NNW 8.1 mph 17.3 mph N/A   Overcast
2:15 PM 67.1 °F 48.7 °F 52% 30.10 in 10.0 mi WNW 9.2 mph - N/A   Overcast
2:16 PM 67.1 °F 48.6 °F 51% 30.10 in 10.0 mi WNW 8.1 mph - N/A   Overcast
2:35 PM 68.0 °F 49.1 °F 51% 30.10 in 10.0 mi NW 6.9 mph - N/A   Overcast
2:40 PM 67.3 °F 48.7 °F 51% 30.10 in 10.0 mi WNW 5.8 mph - N/A   Overcast
2:58 PM 68.4 °F 48.7 °F 49% 30.10 in 10.0 mi West 4.6 mph - N/A   Overcast
3:16 PM 67.1 °F 49.6 °F 53% 30.10 in 10.0 mi WNW 8.1 mph - N/A   Overcast
3:35 PM 67.3 °F 49.5 °F 53% 30.10 in 10.0 mi WNW 6.9 mph - N/A   Overcast
3:55 PM 67.8 °F 49.1 °F 51% 30.11 in 10.0 mi WNW 8.1 mph - N/A   Overcast
4:19 PM 66.2 °F 49.5 °F 55% 30.11 in 10.0 mi WNW 9.2 mph - N/A   Overcast
4:37 PM 66.6 °F 49.5 °F 54% 30.11 in 10.0 mi WNW 5.8 mph - N/A   Overcast
4:56 PM 67.1 °F 49.1 °F 52% 30.11 in 10.0 mi West 8.1 mph - N/A   Overcast
5:15 PM 66.2 °F 49.6 °F 55% 30.12 in 10.0 mi NW 8.1 mph - N/A   Overcast
5:16 PM 66.2 °F 49.6 °F 55% 30.12 in 10.0 mi NW 6.9 mph - N/A   Overcast
5:35 PM 66.7 °F 50.2 °F 55% 30.11 in 10.0 mi WNW 8.1 mph - N/A   Overcast
5:40 PM 66.9 °F 50.2 °F 55% 30.12 in 10.0 mi WNW 8.1 mph - N/A   Overcast
5:58 PM 66.4 °F 49.3 °F 54% 30.11 in 10.0 mi WNW 5.8 mph - N/A   Overcast
6:16 PM 66.2 °F 49.3 °F 54% 30.12 in 10.0 mi NW 8.1 mph - N/A   Overcast
6:35 PM 65.7 °F 48.9 °F 55% 30.11 in 10.0 mi NW 5.8 mph - N/A   Overcast
6:55 PM 65.7 °F 48.6 °F 54% 30.12 in 10.0 mi NW 3.5 mph - N/A   Overcast
7:19 PM 65.3 °F 49.1 °F 56% 30.12 in 10.0 mi WNW 3.5 mph - N/A   Overcast
7:37 PM 65.3 °F 49.5 °F 57% 30.12 in 10.0 mi WNW 3.5 mph - N/A   Overcast
7:55 PM 65.1 °F 49.6 °F 57% 30.12 in 10.0 mi WNW 4.6 mph - N/A   Overcast
8:15 PM 64.2 °F 49.8 °F 59% 30.12 in 10.0 mi West 3.5 mph - N/A   Overcast
8:35 PM 63.0 °F 50.5 °F 64% 30.13 in 10.0 mi WNW 3.5 mph - N/A   Mostly Cloudy
8:58 PM 60.4 °F 50.9 °F 71% 30.14 in 10.0 mi NW 3.5 mph - N/A   Scattered Clouds
9:16 PM 59.5 °F 51.4 °F 75% 30.14 in 10.0 mi Calm Calm - N/A   Scattered Clouds
9:35 PM 59.9 °F 52.2 °F 76% 30.14 in 10.0 mi Calm Calm - N/A   Mostly Cloudy
9:36 PM 59.9 °F 52.2 °F 76% 30.14 in 10.0 mi Calm Calm - N/A   Mostly Cloudy
9:55 PM 59.2 °F 52.7 °F 79% 30.15 in 10.0 mi West 3.5 mph - N/A   Overcast
9:56 PM 59.2 °F 52.7 °F 79% 30.15 in 10.0 mi West 3.5 mph - N/A   Overcast
10:19 PM 57.6 °F 53.4 °F 86% 30.14 in 10.0 mi WNW 3.5 mph - N/A   Scattered Clouds
10:37 PM 57.7 °F 53.2 °F 85% 30.14 in 10.0 mi Calm Calm - N/A   Mostly Cloudy
10:55 PM 57.4 °F 52.7 °F 84% 30.14 in 10.0 mi Calm Calm - N/A   Overcast
11:15 PM 58.3 °F 52.2 °F 80% 30.14 in 10.0 mi Calm Calm - N/A   Mostly Cloudy
11:35 PM 57.2 °F 52.0 °F 83% 30.14 in 10.0 mi Calm Calm - N/A   Scattered Clouds
11:58 PM 55.2 °F 51.8 °F 88% 30.14 in 10.0 mi NW 4.6 mph - N/A   Clear